This is the latest recevied weather packets stored in our database for station/object DL9GRB-13. If no packets are shown the sender has not sent any weather packets the latest 10 day(s).
| Time | Temp. | Humidity | Pressure | Rain* | Wind** | Luminosity | Snow |
|---|---|---|---|---|---|---|---|
| 1777912627 | 15.56° C | 69% | 1011.4 hPa | 0 mm | - | 110 W/m² | - |
| 1777912448 | 15.56° C | 69% | 1011.5 hPa | 0 mm | - | 117 W/m² | - |
| 1777912268 | 15.56° C | 70% | 1011.4 hPa | 0 mm | - | 109 W/m² | - |
| 1777912087 | 15.56° C | 69% | 1011.7 hPa | 0 mm | - | 89 W/m² | - |
| 1777911907 | 16.11° C | 68% | 1011.4 hPa | 0 mm | - | 78 W/m² | - |
| 1777911727 | 16.11° C | 67% | 1011.4 hPa | 0 mm | - | 78 W/m² | - |
| 1777911547 | 16.67° C | 67% | 1011.4 hPa | 0 mm | - | 76 W/m² | - |
| 1777911367 | 16.67° C | 67% | 1011.6 hPa | 0 mm | - | 101 W/m² | - |
| 1777911187 | 16.11° C | 68% | 1011.6 hPa | 0 mm | - | 122 W/m² | - |
| 1777911007 | 16.11° C | 67% | 1011.6 hPa | 0 mm | - | 125 W/m² | - |
| 1777910827 | 16.11° C | 67% | 1011.4 hPa | 0 mm | - | 106 W/m² | - |
| 1777910647 | 16.67° C | 67% | 1011.4 hPa | 0 mm | - | 124 W/m² | - |
| 1777910467 | 16.67° C | 66% | 1011.5 hPa | 0 mm | - | 133 W/m² | - |
| 1777910288 | 17.22° C | 64% | 1011.4 hPa | 0 mm | - | 137 W/m² | - |
| 1777910107 | 17.22° C | 64% | 1011.5 hPa | 0 mm | - | 137 W/m² | - |
| 1777909927 | 17.78° C | 62% | 1011.5 hPa | 0 mm | - | 174 W/m² | - |
| 1777909747 | 17.78° C | 61% | 1011.7 hPa | 0 mm | - | 201 W/m² | - |
| 1777909567 | 17.22° C | 63% | 1011.5 hPa | 0 mm | - | 217 W/m² | - |
| 1777909387 | 17.78° C | 61% | 1011.5 hPa | 0 mm | - | 236 W/m² | - |
| 1777909208 | 17.78° C | 61% | 1011.5 hPa | 0 mm | - | 247 W/m² | - |
| 1777909027 | 17.78° C | 61% | 1011.4 hPa | 0 mm | - | 264 W/m² | - |
| 1777908847 | 17.78° C | 61% | 1011.4 hPa | 0 mm | - | 275 W/m² | - |
| 1777908667 | 17.78° C | 61% | 1011.6 hPa | 0 mm | - | 287 W/m² | - |
| 1777908487 | 17.78° C | 62% | 1011.4 hPa | 0 mm | - | 297 W/m² | - |
| 1777908307 | 17.78° C | 62% | 1011.6 hPa | 0 mm | - | 309 W/m² | - |
* Rain latest hour (hover to see other rain measurements)
** Current wind speed in m/s (hover to see current wind gust speed)